Theta_e
353 356 359 356 342 337 338 336 339 344 346 347 345 344 342 341 341 340 341 341 341 347 347 345 345 344 348 348 347 347 347 346 347 348 346 345 344 344 344 345 343 342 344
355 359 359 350 346 342 344 341 334 345 345 345 348 348 339 340 337 338 339 341 341 346 345 346 347 346 345 346 345 345 345 343 342 343 345 346 345 344 345 344 344 343 343
361 360 358 353 349 348 339 345 343 345 347 350 341 338 334 333 335 337 343 343 344 346 347 348 347 345 344 344 344 346 343 345 346 345 345 346 345 343 345 343 343 344 344
360 358 357 352 352 349 351 342 348 350 347 343 346 346 345 346 345 346 345 345 348 347 345 345 346 347 343 344 346 343 344 343 343 342 342 344 344 344 342 345 345 345 345
358 357 357 349 352 352 351 343 352 351 343 349 349 347 344 348 344 343 341 340 341 343 344 346 344 342 343 341 341 343 343 341 340 341 341 343 345 345 344 344 344 342 340
357 357 355 346 350 350 352 354 354 348 350 349 351 348 349 347 345 341 342 342 342 342 342 343 340 339 341 341 342 341 344 342 341 342 345 345 342 344 345 345 343 342 342
355 353 348 346 347 349 352 354 354 350 350 349 349 347 349 346 344 343 341 340 341 342 343 344 342 343 341 342 341 342 343 344 343 341 341 342 341 341 342 342 343 342 340
352 353 350 346 346 346 351 353 354 352 350 349 347 347 341 344 338 336 341 341 340 340 339 341 342 343 342 343 339 341 341 341 341 343 343 342 343 341 342 343 343 340 339
355 352 346 345 345 345 348 353 352 352 349 350 347 347 345 337 341 336 339 340 341 342 340 337 337 342 347 345 343 343 345 342 342 341 342 342 342 343 343 341 341 342 339
355 348 348 353 351 351 354 353 354 351 348 347 345 347 347 344 335 340 342 341 340 341 339 336 338 339 340 341 341 341 338 337 339 340 341 341 340 341 340 341 341 340 340
347 350 353 354 357 356 353 352 350 349 348 341 345 345 346 343 341 341 341 340 339 342 341 341 339 340 336 333 338 338 336 341 343 343 342 342 341 341 339 340 340 340 340
347 348 352 354 356 353 347 350 350 348 339 335 345 346 345 343 341 340 340 339 338 339 339 339 339 338 337 337 337 337 337 335 335 334 337 338 337 338 340 340 340 341 340
348 348 351 354 356 349 348 349 348 345 340 334 345 345 345 344 342 341 340 339 338 337 338 337 337 337 336 336 335 336 336 335 333 334 333 333 335 336 338 339 340 339 339
349 353 353 357 355 344 349 349 347 345 341 341 344 345 345 344 343 342 341 339 337 338 337 336 335 335 335 334 333 334 333 334 332 328 327 326 328 334 335 336 335 335 336
349 353 354 354 353 341 347 349 347 345 340 346 346 346 346 344 343 342 341 340 339 338 337 336 335 334 333 332 330 333 333 331 332 328 323 322 323 324 329 333 333 332 333
347 351 352 354 350 342 347 349 347 346 342 342 344 347 346 345 343 342 343 340 338 339 338 337 336 333 328 326 326 329 329 328 328 328 328 325 325 322 322 323 328 332 332
345 346 351 353 351 345 346 348 349 347 346 344 345 346 344 344 345 343 344 341 340 339 337 337 336 334 327 327 326 326 328 328 326 327 327 327 327 328 326 322 322 323 325
344 345 351 352 350 346 347 348 348 346 346 345 345 345 345 344 345 345 343 340 339 337 333 336 335 333 327 327 325 326 329 329 328 328 325 322 322 323 324 318 317 316 318
351 351 353 350 351 346 348 345 343 341 342 341 341 343 344 346 344 345 342 343 340 338 335 334 335 331 327 327 326 329 330 329 328 325 324 323 322 321 321 320 317 315 313
347 349 352 352 352 350 347 345 342 339 336 332 340 344 343 346 344 338 342 341 340 338 336 335 335 332 327 327 327 328 328 327 326 325 323 322 322 321 320 323 322 321 320
345 349 351 349 349 347 345 344 342 336 334 334 342 342 340 339 337 337 340 341 340 338 336 333 332 328 328 327 327 327 327 325 325 325 324 322 320 318 314 314 319 321 317
344 343 346 347 347 346 344 346 344 339 337 337 337 337 335 338 335 338 341 341 340 337 336 333 332 329 328 329 328 326 326 325 325 323 322 321 317 313 312 311 308 309 314
344 343 341 342 342 341 341 344 343 338 334 336 336 336 336 336 337 339 338 341 339 336 335 332 332 329 329 329 327 327 326 326 325 323 322 318 312 313 312 307 309 312 313
343 343 342 341 340 338 340 341 341 340 338 338 338 337 336 333 333 335 337 338 337 335 333 332 332 329 328 327 328 327 326 325 325 323 320 314 312 315 314 313 312 311 310
342 341 340 339 336 334 334 335 336 338 338 337 336 335 335 335 335 333 333 335 336 335 334 333 331 329 329 328 326 324 322 324 318 322 316 310 314 317 316 314 312 311 312
340 339 338 337 335 334 334 332 334 335 335 335 334 334 332 333 333 333 335 336 334 334 333 331 330 329 328 327 327 325 325 322 321 315 313 316 318 316 313 312 312 311 310
Wind_Speed
17 15 17 17 11 21 12 15 2 7 2 8 7 8 9 3 1 8 9 12 9 8 9 11 11 10 12 12 11 9 12 16 16 14 16 19 21 21 21 17 13 15 18
14 14 12 20 12 13 12 4 4 3 6 11 5 1 5 4 6 7 4 2 5 7 7 8 5 9 11 9 11 16 16 19 16 16 13 11 16 22 19 18 16 14 15
15 11 11 7 13 13 9 12 9 6 7 6 6 8 9 8 3 1 3 2 1 2 4 4 6 10 9 10 15 15 15 12 12 13 12 6 7 14 12 17 18 14 17
14 11 11 8 12 12 11 8 8 7 6 10 4 7 3 2 6 1 3 2 2 3 5 7 7 9 10 16 13 15 14 14 15 17 16 16 12 5 6 11 14 14 19
10 11 10 13 10 9 9 9 10 9 9 9 6 2 4 2 3 3 5 7 9 3 3 5 7 9 10 9 9 9 10 10 12 13 12 13 12 13 8 8 10 8 8
13 12 9 8 4 8 9 11 12 11 12 11 6 2 2 3 1 3 3 3 4 7 2 6 7 6 4 4 5 5 5 6 6 5 7 9 10 10 14 8 11 8 5
15 13 7 7 8 13 11 12 13 12 12 11 7 4 3 4 2 3 6 1 3 5 2 3 4 2 2 2 2 2 3 6 4 3 5 7 9 10 10 12 12 10 9
14 10 7 7 12 13 12 11 12 12 13 12 9 7 5 3 1 2 2 1 2 5 2 1 2 3 1 3 3 3 2 3 4 5 3 3 5 7 8 8 14 12 9
13 10 9 10 12 14 14 13 15 15 13 12 11 8 5 7 6 2 8 3 1 3 4 3 4 4 6 8 10 8 7 7 7 5 5 5 4 1 3 6 8 13 11
11 9 11 12 13 15 16 17 15 15 18 14 11 9 7 4 5 4 2 2 4 3 2 4 5 5 5 7 7 5 7 6 7 7 7 7 5 4 3 4 5 8 9
10 10 10 12 12 12 12 11 13 15 17 17 17 10 8 8 7 5 4 4 4 5 6 6 6 8 8 9 12 12 9 9 8 9 9 11 9 8 7 5 4 5 7
7 8 10 12 12 13 8 11 14 16 19 18 13 10 9 8 7 6 3 3 4 5 5 6 7 8 9 9 10 10 9 8 9 10 9 11 8 8 8 6 7 5 6
5 7 10 11 13 10 7 13 14 13 17 17 11 11 9 8 7 6 4 3 4 5 4 6 7 7 8 10 10 10 10 11 11 13 12 12 12 14 12 10 9 6 6
6 7 10 11 13 7 8 11 12 12 15 14 14 12 11 9 7 6 5 4 4 3 4 5 6 7 7 8 8 9 9 10 11 11 13 13 12 13 13 14 11 7 5
5 6 9 10 14 8 9 9 12 13 18 14 12 11 11 10 8 8 6 4 4 3 3 4 4 5 4 4 7 8 8 9 10 11 13 14 14 12 10 10 12 11 10
4 5 7 10 14 10 10 11 13 16 18 17 11 10 12 11 11 9 7 6 5 3 3 3 3 3 2 4 6 8 7 8 9 10 10 11 11 12 12 12 12 11 10
3 4 5 8 13 11 10 11 12 12 14 16 14 11 14 13 13 10 10 9 10 7 5 4 3 2 2 3 5 7 6 7 8 8 8 7 10 10 10 11 9 9 11
1 3 5 7 12 12 9 12 13 18 16 16 14 11 12 14 14 13 11 12 12 9 7 6 6 4 4 3 6 7 5 5 7 7 6 7 9 9 9 8 10 10 9
1 2 2 7 12 10 9 7 9 17 21 20 15 12 14 14 14 14 12 13 14 11 9 8 9 6 5 4 5 7 3 4 4 4 4 4 5 6 7 6 7 7 8
2 2 4 8 11 9 9 7 8 15 21 15 15 15 15 14 15 13 11 14 14 14 10 10 11 10 7 6 6 8 4 4 3 2 2 2 2 3 4 6 4 4 5
8 7 9 9 11 9 6 7 9 11 13 16 16 16 13 14 14 12 12 15 18 18 17 12 12 11 8 9 8 9 8 4 3 4 4 1 2 2 3 2 3 4 1
7 7 11 15 15 12 8 9 11 20 19 18 15 15 14 12 17 16 16 19 20 21 18 13 11 10 11 9 9 10 9 10 9 7 5 5 4 4 3 4 4 5 7
10 6 5 5 6 10 13 14 18 14 16 21 22 19 20 19 17 15 19 21 23 22 18 13 12 10 9 10 9 10 10 9 8 7 7 7 6 3 3 6 7 8 4
7 7 5 4 2 1 3 8 12 13 14 13 17 19 19 18 19 19 20 21 22 23 21 17 16 12 9 9 10 11 11 10 9 9 9 9 7 4 5 3 6 2 1
5 4 3 2 1 2 1 4 7 10 13 14 13 14 15 16 17 18 18 19 23 20 16 16 14 12 12 11 12 10 10 10 11 9 11 10 5 5 3 1 1 1 2
4 4 4 4 5 4 4 4 4 7 9 10 11 11 10 13 13 15 17 18 22 18 19 18 16 17 15 17 12 12 12 13 12 12 9 8 7 5 4 3 2 1 2
Wind_Direction
197 183 166 148 100 305 237 317 48 164 232 15 3 328 336 11 310 202 230 233 222 231 233 238 240 235 238 254 253 272 273 249 254 253 252 258 255 243 244 242 246 232 238
184 157 174 162 205 268 209 164 145 186 76 61 16 96 102 104 144 125 142 184 221 225 223 233 247 264 256 266 270 256 256 254 256 255 253 259 248 245 231 232 232 230 230
162 184 183 162 274 225 195 160 178 147 111 151 160 123 107 106 80 13 152 178 156 304 282 273 254 261 282 272 280 269 273 259 266 248 236 261 248 230 217 224 230 234 225
170 198 185 202 179 205 173 167 169 164 160 134 174 151 124 223 268 248 242 253 249 263 282 283 272 272 247 248 254 265 258 258 255 251 240 238 259 254 219 215 219 225 220
160 175 185 154 170 172 169 170 162 171 178 149 157 191 205 248 236 277 312 338 330 305 261 291 280 265 261 263 266 276 274 272 269 257 247 230 235 244 253 209 185 213 218
139 149 172 171 187 159 164 170 172 189 168 153 154 178 190 150 251 294 329 354 289 296 327 313 306 284 252 271 284 291 299 301 284 246 235 237 223 224 231 228 193 159 151
136 142 152 201 197 170 173 171 170 170 168 170 170 170 191 160 29 53 291 129 283 302 331 345 348 35 341 330 302 315 10 338 321 293 250 249 243 236 236 229 201 169 156
145 151 163 172 169 170 170 179 174 170 173 176 173 189 187 164 122 186 168 299 339 309 251 207 48 67 55 346 14 355 2 4 9 17 8 272 244 247 227 219 200 178 177
156 153 154 149 170 183 184 190 187 174 173 181 175 159 189 155 186 204 73 332 116 347 332 78 63 66 58 49 46 33 31 41 27 17 21 37 41 57 237 213 198 190 165
153 155 158 161 165 172 181 197 187 179 164 183 150 157 164 141 130 105 165 80 30 29 17 74 77 77 68 78 90 35 29 45 39 28 39 42 54 51 59 147 183 183 186
160 165 168 170 171 171 170 176 176 173 180 167 144 147 165 149 127 121 99 70 61 48 39 57 55 56 56 59 56 26 41 51 56 59 56 50 50 47 59 91 130 172 173
162 175 179 186 180 177 180 177 175 185 174 160 141 155 156 139 122 104 82 79 74 76 77 78 70 66 68 70 64 62 46 63 57 56 67 58 54 60 71 63 87 113 146
183 183 187 192 183 186 169 171 169 176 171 164 158 160 156 142 129 137 157 139 98 83 64 75 82 77 70 68 70 73 59 56 68 69 64 65 69 59 60 62 63 96 109
181 173 188 193 192 199 175 174 167 177 177 169 170 173 164 164 167 170 171 148 108 95 85 77 84 82 74 71 76 76 83 77 63 66 70 69 72 80 60 71 63 63 95
189 182 201 198 194 198 171 180 175 175 168 169 173 176 178 177 192 186 182 172 128 140 117 95 86 81 80 86 87 79 77 80 79 73 74 74 72 79 92 83 88 67 78
203 214 209 197 194 186 175 185 179 179 187 191 190 193 179 180 199 202 192 188 168 171 130 106 105 102 99 103 101 95 86 85 81 75 69 65 65 70 72 78 96 109 107
217 231 225 212 198 185 183 185 187 187 195 192 187 202 195 195 204 212 209 190 196 184 177 158 148 180 132 106 102 106 95 90 90 90 91 82 80 67 59 72 87 95 100
285 255 238 204 188 179 177 189 195 196 190 197 201 210 211 203 209 208 214 201 212 215 199 178 186 182 167 135 121 109 93 90 88 79 81 87 86 93 81 71 78 87 99
263 245 227 191 179 180 203 225 206 203 189 190 211 216 212 206 214 210 213 213 211 218 213 186 201 212 187 172 142 114 101 115 105 132 116 87 84 85 93 79 60 61 61
161 191 170 167 172 184 198 207 220 197 190 196 220 224 224 209 213 225 220 214 223 218 192 190 193 205 206 200 174 135 171 164 146 70 111 76 91 117 114 99 90 101 108
142 148 157 172 183 182 186 190 187 172 177 214 238 232 235 227 226 244 226 224 226 216 188 193 202 198 212 216 207 202 205 184 131 171 180 169 134 134 119 115 154 192 194
115 151 186 190 204 206 190 197 192 203 213 222 250 237 234 247 241 243 231 223 227 212 198 201 195 207 207 221 218 218 218 190 216 213 226 218 179 148 103 35 54 88 97
96 96 126 138 206 234 226 201 227 224 227 232 243 249 256 236 233 239 235 227 219 207 194 187 187 193 203 218 217 219 217 216 222 219 219 199 177 138 64 40 102 81 39
99 88 83 75 46 216 187 231 241 243 247 242 242 243 240 237 236 234 241 232 222 204 180 198 200 196 199 212 219 224 219 209 212 213 207 185 184 153 191 41 36 40 99
119 109 105 84 27 317 255 242 247 243 241 247 252 255 254 251 247 238 231 215 222 214 207 204 199 196 205 207 203 201 196 207 192 203 184 179 196 216 203 221 182 111 43
112 98 85 41 27 355 342 333 303 275 258 247 251 256 265 255 237 224 220 211 209 211 204 205 201 202 205 222 228 220 213 199 190 172 185 199 214 208 206 207 192 171 102